Location: *
(45.1833°N, 11.1500°E)
Time: 05:07:11
(UTC+00:00)

Daily predictions for brighter satellites

Satellite Brightness Start Highest point End
(mag) Time Altitude Azimuth Time Altitude Azimuth Time Altitude Azimuth
Lacrosse 5 4.4 00:32:18 17° NNE 00:32:18 17° NNE 00:34:04 10° NE
Cosmos 2082 Rocket 4.5 00:30:06 10° NNW 00:31:30 18° NNW 00:31:30 18° NNW
Cosmos 2344 4.4 01:03:52 36° ESE 01:03:58 36° ESE 01:10:59 10° NE
ADEOS II 3.8 01:05:50 10° NE 01:09:24 27° ENE 01:09:24 27° ENE
Cosmos 2278 Rocket 3.7 01:19:20 30° N 01:19:20 30° N 01:22:34 10° NNE
Resurs 1-4 Rocket 3.5 01:16:16 10° N 01:19:07 33° N 01:19:07 33° N
SME Rocket 4.4 01:18:47 10° NNE 01:24:46 58° NE 01:24:46 58° NE
BREEZE-M DEB (TANK) 4.3 01:28:38 62° NE 01:28:38 62° NE 01:40:05 10° E
Cosmos 2279 Rocket 4.3 01:24:51 10° N 01:30:29 63° NE 01:30:29 63° NE
SL-16 R/B 4.0 01:35:39 26° NW 01:35:39 26° NW 01:38:21 10° NNW
Lacrosse 5 rocket 3.6 01:42:56 23° ENE 01:42:56 23° ENE 01:45:09 10° E
Cosmos 1943 Rocket 3.2 01:44:51 37° ESE 01:44:54 37° ESE 01:49:57 10° NE
CENTAUR R/B 3.7 01:44:44 30° SE 01:45:40 31° ESE 01:51:25 10° NE
CZ-2D R/B 3.4 01:48:44 10° N 01:51:46 30° NNW 01:51:46 30° NNW
ATLAS 5 CENTAUR R/B 3.7 01:56:06 21° NNW 01:56:06 21° NNW 01:59:08 10° NNE
USA 238 DEB 3.5 02:00:34 81° WSW 02:00:55 86° NW 02:07:54 10° NE
USA 238 3.5 02:00:39 81° WSW 02:01:01 87° NW 02:08:01 10° NE
Cosmos 540 Rocket 3.8 02:03:58 58° N 02:03:58 58° N 02:08:09 10° NNE
Nadezhda 4 Rocket 4.4 02:03:17 42° SE 02:05:08 58° E 02:11:07 10° NNE
ARIANE 5 R/B 2.7 02:02:59 10° NNE 02:07:24 66° N 02:07:24 66° N
IRIDIUM 106 4.4 02:09:03 76° NE 02:09:03 76° NE 02:14:02 10° N
Meteor 1-26 Rocket 4.3 02:09:39 65° SE 02:10:08 68° E 02:15:38 10° NNE
Lacrosse 5 3.9 02:11:31 15° NNW 02:14:30 24° NNE 02:18:38 10° ENE
SeaSat 1 4.3 02:13:52 10° NE 02:17:57 25° ESE 02:20:22 18° SSE
Cosmos 1869 Rocket 4.1 02:13:57 10° N 02:17:35 55° NNE 02:17:35 55° NNE
CZ-2C R/B 3.8 02:14:42 10° NNE 02:17:45 46° NE 02:17:45 46° NE
Cosmos 2297 4.5 02:24:40 37° NW 02:24:40 37° NW 02:29:40 10° NNE
Cosmos 1125 Rocket 3.5 02:23:47 10° NNW 02:29:08 85° ENE 02:34:27 10° SSE
Cosmos 1461 3.6 02:30:52 46° ESE 02:30:52 46° ESE 02:33:57 10° SE
Unknown 4.3 02:33:37 47° ESE 02:33:37 47° ESE 02:37:15 10° ENE
NOSS 3-3 (A) 4.4 02:26:07 10° NW 02:33:37 68° WSW 02:41:50 10° SSE
NOSS 3-3 (C) 4.4 02:26:13 10° NW 02:33:44 69° WSW 02:41:56 10° SSE
Cosmos 1606 4.5 02:35:47 24° NNW 02:35:47 24° NNW 02:37:36 10° N
Unknown 4.2 02:35:12 49° ESE 02:35:12 49° ESE 02:38:55 10° ENE
Atlas Centaur 2 3.9 02:36:05 24° S 02:36:16 24° S 02:42:04 10° SE
Unknown 4.1 02:36:49 51° SE 02:36:49 51° SE 02:40:36 10° ENE
Cosmos 2369 Rocket 2.1 02:36:43 55° SSW 02:38:05 88° ESE 02:43:48 10° NNE
Unknown 4.1 02:38:23 53° SE 02:38:23 53° SE 02:42:15 10° ENE
USA 215 4.5 02:32:42 10° ENE 02:38:28 33° SE 02:42:37 17° S
IDEFIX/ARIANE 42P 3.7 02:34:23 10° NNE 02:39:23 42° E 02:44:18 10° SSE
Cosmos 2228 Rocket 4.4 02:41:16 28° NW 02:41:16 28° NW 02:44:00 10° N
Unknown 4.0 02:40:01 55° SE 02:40:01 55° SE 02:43:57 10° ENE
Unknown 3.9 02:43:12 59° SE 02:43:12 59° SE 02:47:16 10° ENE
COSMOS 2487 3.5 02:40:06 10° N 02:43:28 45° ENE 02:46:49 10° SE
Cosmos 44 4.2 02:42:08 29° SSE 02:44:07 44° ESE 02:48:42 10° NE
Starlink (trailer) 3.8 02:44:45 60° SE 02:44:48 60° SE 02:48:54 10° ENE
NOSS 3-2 (A) 3.6 02:44:44 45° W 02:46:09 56° NW 02:52:42 10° NNE
Unknown 3.7 02:46:25 62° SSE 02:46:31 62° SE 02:50:38 10° ENE
Unknown 3.7 02:47:59 63° SSE 02:48:09 64° SE 02:52:16 10° ENE
NOSS 3-2 (C) 3.4 02:46:55 48° WSW 02:48:40 76° NW 02:55:19 10° NE
Meteor 1-20 Rocket 4.3 02:44:54 10° NNW 02:50:09 49° W 02:50:23 49° WSW
ADEOS II 2.6 02:45:19 10° N 02:50:11 39° WNW 02:50:20 39° WNW
SL-4 R/B 2.4 02:51:55 43° N 02:52:24 46° NNE 02:55:52 10° E
ATLAS 3B R/B 2.5 02:50:13 37° SW 02:53:05 88° SE 02:59:44 10° NE
Unknown 3.6 02:54:22 65° S 02:54:47 72° SE 02:58:56 10° ENE
Unknown 3.5 02:56:01 64° SSW 02:56:30 74° SE 03:00:38 10° ENE
Unknown 3.5 02:56:38 65° SSW 02:57:08 75° SE 03:01:17 10° ENE
Unknown 3.5 02:59:11 62° SSW 02:59:47 78° SE 03:03:56 10° ENE
CZ-2D R/B 4.4 02:56:24 10° N 02:59:21 32° NW 02:59:21 32° NW
Resurs 1-4 Rocket 4.1 02:58:22 10° NNW 03:00:11 12° NW 03:00:11 12° NW
Unknown 3.5 03:00:53 62° SW 03:01:33 83° SE 03:05:42 10° ENE
SL-24 DEB 4.1 02:58:34 20° S 03:01:52 84° W 03:06:36 10° N
Unknown 3.5 03:01:55 60° SW 03:02:38 82° SE 03:06:48 10° ENE
Meteor 1-28 Rocket 4.3 03:06:15 30° NW 03:06:15 30° NW 03:08:29 10° NNW
Unknown 3.5 03:04:05 58° SW 03:04:51 87° SSE 03:09:02 10° ENE
Unknown 3.5 03:05:34 55° SW 03:06:25 86° SSE 03:10:35 10° ENE
Unknown 3.7 03:06:11 49° WNW 03:06:47 56° NNW 03:10:37 10° NE
Unknown 3.5 03:06:14 55° SW 03:07:07 87° SSE 03:11:17 10° ENE
H-2A R/B 2.9 03:04:37 10° NNE 03:08:24 53° E 03:11:27 15° S
Unknown 3.5 03:08:40 51° SW 03:09:40 88° SE 03:13:50 10° ENE
Cosmos 1602 4.1 03:06:24 10° NNW 03:09:52 45° WNW 03:09:52 45° WNW
Unknown 3.9 03:09:50 42° WNW 03:10:33 47° NNW 03:14:17 10° NE
Cosmos 1782 3.4 03:12:05 37° WNW 03:12:05 37° WNW 03:15:33 10° N
Unknown 3.5 03:11:57 48° WSW 03:13:04 86° NNW 03:17:14 10° ENE
USA 267 4.3 03:07:37 10° E 03:13:44 44° NNE 03:19:51 10° NW
Iridium 4 Rocket 3.0 03:10:49 17° S 03:14:20 79° W 03:18:39 10° N
Unknown 3.5 03:13:34 46° WSW 03:14:44 84° NNW 03:18:54 10° ENE
Unknown 3.5 03:15:08 44° WSW 03:16:23 82° NNW 03:20:33 10° ENE
Cosmos 2344 3.9 03:13:54 27° WSW 03:18:01 52° NW 03:26:18 10° NE
Unknown 3.5 03:16:46 42° WSW 03:18:05 80° NNW 03:22:15 10° ENE
Cosmos 1812 3.5 03:14:21 10° S 03:18:06 51° E 03:21:51 10° NNE
Lacrosse 5 rocket 1.5 03:18:40 29° WNW 03:20:38 56° SW 03:24:59 10° SSE
Unknown 3.6 03:20:00 39° WSW 03:21:25 76° NNW 03:25:35 10° NE
Cosmos 1707 Rocket 4.0 03:21:48 34° WSW 03:22:59 41° WNW 03:27:11 10° N
Unknown 3.6 03:21:37 38° WSW 03:23:07 74° NNW 03:27:15 10° NE
Cosmos 1400 Rocket 2.7 03:22:09 32° SW 03:23:47 61° WNW 03:27:38 10° N
Unknown 3.6 03:23:10 36° WSW 03:24:45 73° NNW 03:28:54 10° NE
Unknown 3.6 03:24:39 35° WSW 03:26:18 72° NNW 03:30:27 10° NE
Unknown 3.7 03:26:37 33° WSW 03:28:21 69° NNW 03:32:29 10° NE
Cosmos 1943 Rocket 2.9 03:26:24 26° W 03:28:38 36° NW 03:33:45 10° NNE
Cosmos 1092 Rocket 4.1 03:24:25 17° SSW 03:28:57 52° WNW 03:34:58 10° N
Unknown 3.6 03:27:46 32° WSW 03:29:33 72° NNW 03:33:42 10° NE
Aureole 2 Rocket 3.3 03:29:32 12° S 03:31:47 36° ESE 03:34:16 10° NE
Unknown 3.7 03:30:55 30° WSW 03:32:50 69° NNW 03:36:59 10° NE
Cosmos 1733 Rocket 3.1 03:29:07 10° NNW 03:33:30 58° W 03:37:51 10° S
PSLV R/B 3.6 03:29:36 10° N 03:33:55 58° WNW 03:37:15 16° SSW
Unknown 3.7 03:32:33 29° WSW 03:34:32 67° NNW 03:38:40 10° NE
CENTAUR R/B 2.8 03:31:56 23° WSW 03:35:52 57° NW 03:42:54 10° NE
Unknown 3.8 03:34:20 27° W 03:36:23 61° NNW 03:40:31 10° NE
USA 102 2.7 03:31:18 10° NNE 03:36:21 61° NE 03:36:21 61° NE
ADEOS 3.7 03:32:44 10° N 03:37:50 55° WNW 03:42:32 12° SW
Unknown 3.7 03:35:44 27° WSW 03:37:52 64° NNW 03:42:00 10° NE
Unknown 4.0 03:37:04 25° W 03:39:08 51° NNW 03:43:06 10° NE
Unknown 3.8 03:37:20 26° WSW 03:39:32 62° NNW 03:43:39 10° NE
Meteor 1-31 Rocket 3.7 03:36:46 10° NNE 03:40:36 51° E 03:44:24 10° S
ATLAS 5 CENTAUR R/B 4.4 03:40:57 10° NNW 03:42:00 11° N 03:43:04 10° N
BREEZE-M DEB (TANK) 4.0 03:39:49 20° W 03:42:35 47° SSW 03:55:16 10° SE
Unknown 3.8 03:40:32 24° W 03:42:52 60° NNW 03:46:58 10° NE
Unknown 3.9 03:40:36 24° W 03:42:52 55° NNW 03:46:55 10° NE
MSX 3.8 03:38:15 10° NNE 03:44:02 84° WNW 03:49:46 10° SSW
Unknown 3.8 03:42:05 23° W 03:44:29 59° NNW 03:48:36 10° NE
Cosmos 1536 2.8 03:41:40 10° N 03:45:40 85° E 03:49:38 10° S
Unknown 3.9 03:43:43 22° W 03:46:12 57° NNW 03:50:17 10° NE
ARIANE 5 R/B 4.3 03:44:02 10° NNW 03:46:27 13° NW 03:47:43 12° WNW
Unknown 3.9 03:45:18 21° W 03:47:51 56° NNW 03:51:57 10° NE
CZ-2C R/B 2.6 03:43:38 10° NNE 03:48:31 75° ESE 03:53:32 10° S
Unknown 4.0 03:48:31 20° W 03:51:12 54° NNW 03:55:17 10° NE
Meteor 1-5 Rocket 4.2 03:46:09 10° NNW 03:51:27 55° W 03:56:53 10° S
Cosmos 1346 Rocket 2.8 03:48:35 10° NNW 03:52:42 76° W 03:56:46 10° S
Unknown 4.1 03:50:25 19° W 03:53:11 48° NNW 03:57:13 10° NE
Cosmos 1666 3.5 03:50:03 10° N 03:53:45 53° E 03:57:26 10° SSE
CZ-4B R/B 3.4 03:49:21 10° NNE 03:53:54 76° ESE 03:58:23 10° S
Unknown 4.1 03:51:59 18° W 03:54:50 48° NNW 03:58:52 10° NE
Unknown 4.1 03:52:15 18° W 03:55:06 50° NNW 03:59:09 10° NE
SeaSat 1 2.8 03:50:53 10° NNE 03:55:39 49° NW 04:00:10 11° SW
Cosmos 44 Rocket 4.3 03:51:30 10° SSW 03:56:21 49° ESE 04:01:07 10° NE
Unknown 4.1 03:54:55 17° W 03:57:53 49° NNW 04:01:56 10° NE
Lacrosse 5 2.4 03:53:18 10° NW 03:58:20 61° NE 04:03:20 10° ESE
Unknown 4.1 03:58:07 16° W 04:01:13 48° NNW 04:05:15 10° NE
Cosmos 1340 2.6 03:57:47 10° NNW 04:01:33 61° W 04:05:16 10° S
Unknown 4.2 03:59:42 15° W 04:02:53 47° NNW 04:06:55 10° NE
PAYLOAD A 3.8 03:59:45 10° N 04:04:30 63° WNW 04:09:07 10° SSW
Unknown 4.2 04:01:18 15° W 04:04:34 46° NNW 04:08:35 10° NE
Cosmos 1782 Rocket 4.0 04:00:44 10° N 04:05:06 69° E 04:09:28 10° SSE
Unknown 4.2 04:02:54 14° W 04:06:14 45° NNW 04:10:14 10° NE
Cosmos 1484 Rocket 4.1 04:05:01 10° NNE 04:08:36 42° E 04:12:08 10° S
Sich 1 Rocket 4.1 04:07:22 10° N 04:11:48 66° E 04:16:14 10° SSE
Cosmos 1553 Rocket 4.1 04:06:45 10° NNW 04:12:48 52° W 04:18:43 10° SSW
Unknown 4.3 04:09:17 12° W 04:12:55 42° NNW 04:16:53 10° NE
Unknown 4.4 04:10:52 11° W 04:14:34 41° NNW 04:18:31 10° NE
Cosmos 2219 4.0 04:09:15 10° NNW 04:14:53 58° ENE 04:20:26 10° SE
Cosmos 2227 Rocket 3.9 04:10:12 10° NNW 04:15:28 37° NE 04:20:41 10° ESE
Unknown 4.4 04:12:29 11° W 04:16:15 41° NNW 04:20:12 10° NE
Cosmos 2242 Rocket 4.1 04:12:33 10° SW 04:16:49 40° WNW 04:21:05 10° N
EP 1 4.2 04:14:42 10° SW 04:17:36 86° NW 04:20:11 10° NE
Unknown 4.4 04:14:03 10° W 04:17:53 40° NNW 04:21:50 10° NE
COSMOS 2487 4.3 04:16:56 10° WNW 04:18:10 12° W 04:19:25 10° WSW
Cosmos 1703 Rocket 3.5 04:13:47 10° SSW 04:18:13 70° W 04:22:38 10° N
IDEFIX/ARIANE 42P 3.5 04:14:19 10° N 04:18:48 29° WNW 04:23:15 10° WSW
Unknown 4.4 04:15:41 10° W 04:19:36 40° NNW 04:23:32 10° NE
CZ-4B R/B 3.8 04:16:17 10° N 04:19:55 54° WNW 04:23:27 10° SSW
USA 215 3.3 04:15:19 10° NE 04:21:53 80° NW 04:28:26 10° WSW
ATLAS CENTAUR R/B 4.0 04:18:46 10° NNW 04:22:13 21° NE 04:25:28 10° E
Cosmos 2369 Rocket 3.8 04:18:56 10° W 04:22:53 19° NW 04:26:51 10° N
Unknown 4.5 04:19:02 10° W 04:22:56 39° NNW 04:26:51 10° NE
Timation 2 Rocket 4.3 04:18:56 10° NW 04:24:25 38° WSW 04:29:50 10° S
Atlas Centaur 2 4.4 04:19:37 10° WSW 04:24:45 21° SSW 04:30:23 10° SSE
Cosmos 44 4.2 04:20:58 10° WSW 04:25:26 32° NW 04:29:43 10° NNE
Cosmos 2297 Rocket 3.5 04:21:09 10° NNW 04:26:36 46° ENE 04:32:01 10° SE
Meteor 1-27 Rocket 4.3 04:23:49 10° SW 04:29:17 39° WNW 04:34:43 10° N
